Total_Precipitation_Accumulation
0.75 0.47 0.57 0.55 0.47 0.47 0.45 0.49 0.54 0.55 0.53 0.52 0.49 0.48 0.48 0.52 0.58 0.65 0.69 0.77 0.95 1.15 1.34 1.56 1.84 1.94 2.05 2.06 2.09 2.10 1.99 1.95 2.09 2.25 2.27 2.23 2.38 2.46 2.32 2.08 1.95 1.61 1.66
0.59 0.46 0.57 0.54 0.49 0.47 0.48 0.51 0.54 0.59 0.58 0.58 0.55 0.54 0.54 0.57 0.60 0.71 0.77 0.85 1.03 1.18 1.29 1.62 1.89 1.96 1.92 1.92 1.96 1.99 1.88 1.95 2.24 2.49 2.58 2.35 2.53 2.66 2.59 2.30 2.28 2.03 1.72
0.47 0.46 0.53 0.51 0.48 0.51 0.52 0.55 0.57 0.62 0.64 0.65 0.64 0.62 0.63 0.69 0.72 0.77 0.92 1.05 1.17 1.29 1.33 1.51 1.77 1.91 1.84 1.75 1.91 1.98 1.92 1.97 2.51 2.92 3.15 2.78 2.68 2.84 2.72 2.53 2.30 2.06 1.72
0.56 0.65 0.58 0.49 0.48 0.52 0.53 0.58 0.61 0.66 0.73 0.78 0.81 0.74 0.72 0.78 0.85 0.90 1.07 1.17 1.27 1.45 1.46 1.49 1.64 1.80 1.69 1.64 1.87 1.95 1.96 2.07 2.69 3.17 3.34 3.01 3.00 3.25 2.96 2.76 2.45 2.15 1.98
0.66 0.75 0.67 0.54 0.52 0.52 0.59 0.59 0.64 0.71 0.82 0.89 0.96 1.03 0.95 0.85 0.88 1.02 1.18 1.24 1.32 1.48 1.77 1.76 1.74 1.87 1.66 1.63 1.79 1.89 2.01 2.39 2.89 3.03 3.22 3.41 3.74 3.82 3.06 2.79 2.64 2.41 2.23
0.68 0.71 0.66 0.63 0.61 0.59 0.63 0.66 0.76 0.85 0.91 0.93 1.03 1.14 1.20 1.07 1.03 1.22 1.34 1.33 1.40 1.51 1.76 2.08 1.99 2.08 1.95 1.74 1.78 1.91 2.22 2.72 2.83 2.81 3.43 3.69 3.66 3.61 3.03 2.72 2.69 2.77 2.65
0.72 0.74 0.82 0.86 0.89 0.88 0.83 0.83 0.91 0.97 1.03 1.07 1.08 1.17 1.31 1.24 1.24 1.54 1.55 1.48 1.54 1.61 1.76 1.91 1.92 2.13 2.04 1.83 1.80 1.95 2.32 2.65 2.60 2.81 3.38 3.73 3.54 3.40 3.20 3.02 2.89 2.93 2.92
0.85 0.92 1.08 1.22 1.29 1.19 1.10 1.05 1.08 1.07 1.07 1.13 1.25 1.25 1.28 1.36 1.56 1.83 1.71 1.62 1.72 1.81 1.86 1.94 1.98 2.05 2.08 2.00 1.91 1.95 2.21 2.40 2.28 2.58 3.11 3.35 3.26 3.15 3.29 3.15 3.01 2.99 2.94
1.24 1.32 1.30 1.24 1.24 1.27 1.24 1.19 1.26 1.23 1.20 1.22 1.36 1.45 1.38 1.44 1.73 2.00 1.85 1.79 1.79 1.79 1.83 1.97 2.21 2.14 2.04 2.05 2.03 2.09 2.32 2.50 2.49 2.54 2.87 3.25 3.17 3.36 3.54 3.30 3.00 3.06 3.14
2.09 2.32 1.81 1.45 1.31 1.20 1.22 1.32 1.41 1.55 1.49 1.39 1.45 1.60 1.62 1.66 1.83 2.05 1.94 1.91 1.86 1.90 1.91 2.12 2.35 2.38 2.28 2.16 2.08 2.18 2.42 2.46 2.23 2.49 2.93 3.07 3.21 3.64 3.98 3.70 3.35 3.32 3.25
2.80 3.01 2.29 1.81 1.60 1.48 1.45 1.50 1.61 1.80 1.90 1.76 1.69 1.75 1.90 2.04 2.29 2.35 2.16 2.20 2.10 2.19 2.21 2.32 2.49 2.52 2.57 2.54 2.43 2.43 2.36 2.18 2.42 2.70 2.83 3.03 3.41 3.95 4.21 4.01 3.66 3.48 3.34
2.85 2.67 2.42 2.23 1.93 1.77 1.70 1.96 2.09 2.02 2.09 1.96 2.11 2.04 2.24 2.73 2.92 2.60 2.62 2.55 2.45 2.52 2.65 2.75 2.76 2.72 2.59 2.56 2.75 2.77 2.31 2.28 2.55 2.73 2.85 2.97 3.31 3.93 4.20 4.02 3.78 3.65 3.55
3.33 2.84 2.58 2.37 2.30 2.16 2.24 2.48 2.60 2.71 2.77 2.57 2.68 2.68 2.78 2.88 2.86 2.86 2.87 2.80 2.83 2.85 3.10 3.26 3.09 2.80 2.62 2.64 2.72 2.74 2.61 2.60 2.60 2.70 2.88 3.09 3.39 3.94 4.26 4.09 3.82 3.76 3.77
3.54 3.40 2.87 2.74 2.83 3.04 3.07 3.02 2.99 2.99 3.08 3.01 3.07 2.92 3.04 3.15 3.16 3.04 3.08 3.04 3.12 3.06 3.32 3.37 3.35 3.23 2.99 2.81 2.74 2.87 2.94 2.97 2.83 2.87 3.24 3.37 3.42 3.79 4.29 4.35 4.15 4.03 4.11
3.59 3.50 3.21 3.39 3.48 3.57 3.61 3.61 3.36 3.27 3.50 3.52 3.49 3.39 3.43 3.37 3.22 3.21 3.19 3.22 3.12 3.26 3.43 3.50 3.39 3.30 3.17 3.00 2.80 2.80 2.96 3.05 3.19 3.24 3.37 3.45 3.26 3.48 4.08 4.49 4.57 4.64 4.59
3.56 3.79 3.77 3.87 3.77 3.70 3.77 3.98 4.01 3.69 3.84 4.05 4.14 4.00 3.83 3.73 3.61 3.61 3.69 3.66 3.41 3.44 3.59 3.75 3.67 3.56 3.29 3.13 2.97 2.94 2.99 2.96 3.07 3.29 3.34 3.42 3.36 3.38 3.83 4.38 4.80 5.03 5.02
3.77 3.85 3.90 3.80 4.00 4.14 4.15 4.13 4.20 4.11 4.09 4.24 4.46 4.48 4.14 3.87 3.96 3.99 4.19 4.17 3.89 3.86 3.96 4.07 4.09 3.95 3.52 3.24 3.21 3.24 3.22 3.23 3.08 3.08 3.27 3.37 3.30 3.43 3.70 3.90 4.30 4.64 4.87
3.78 4.13 4.07 3.68 4.13 4.36 4.30 4.26 4.07 4.15 4.42 4.61 4.68 4.81 4.50 4.14 4.04 4.23 4.22 4.06 4.06 4.21 4.44 4.61 4.52 4.44 4.20 3.98 3.82 3.50 3.25 3.16 3.02 3.15 3.13 3.16 3.49 3.43 3.47 3.39 3.64 4.04 4.38
3.97 4.46 4.29 4.04 4.23 4.37 4.43 4.51 4.28 4.41 4.74 4.86 5.02 5.06 4.63 4.22 4.13 4.43 4.55 4.55 4.46 4.54 4.67 4.45 4.60 4.53 4.68 4.51 3.98 3.67 3.38 3.21 3.13 3.11 3.17 3.14 3.28 3.44 3.41 3.25 3.37 3.64 3.89
4.28 5.01 4.63 4.25 4.25 4.59 4.61 4.47 4.47 4.60 4.92 5.22 5.30 5.12 4.82 4.65 4.46 4.72 4.74 4.80 4.86 5.02 4.95 4.86 4.91 4.72 4.57 4.50 4.03 3.80 3.54 3.22 3.17 3.09 2.98 3.00 3.04 2.91 3.00 3.04 3.19 3.13 3.44
4.21 4.71 4.71 4.52 4.61 4.74 4.76 4.53 4.69 4.89 5.19 5.50 5.45 5.35 5.25 5.12 5.02 5.17 5.25 5.23 5.06 5.05 4.99 4.88 4.87 4.81 4.48 4.28 4.33 3.93 3.41 2.96 2.71 2.63 2.62 2.71 2.69 2.62 2.72 2.96 3.16 3.09 2.99
3.94 4.21 4.53 4.68 4.73 4.54 4.91 5.21 5.50 5.86 5.91 6.20 6.44 6.48 6.25 5.95 5.75 5.61 5.68 5.37 5.07 5.01 4.93 4.81 4.71 4.58 4.20 4.05 4.13 4.15 3.59 3.12 2.55 2.20 2.27 2.28 2.36 2.50 2.55 2.48 2.68 2.79 2.70
3.76 4.11 4.46 4.83 4.96 4.91 5.42 5.95 6.40 6.80 6.72 6.77 6.71 6.67 6.61 6.17 5.84 5.65 5.43 5.31 5.15 4.97 4.80 4.78 4.69 4.58 4.27 4.05 3.98 4.21 3.97 3.44 2.84 2.48 2.21 2.20 2.31 2.41 2.36 2.30 2.33 2.39 2.44
3.48 3.90 4.26 4.70 5.14 5.47 5.90 6.38 6.89 7.23 7.46 7.28 6.95 6.65 6.28 5.78 5.49 5.14 4.96 5.07 5.01 4.77 4.53 4.22 4.12 4.13 4.11 3.93 3.82 3.64 3.56 3.43 3.24 2.89 2.55 2.46 2.50 2.47 2.33 2.27 2.32 2.45 2.52
3.28 3.65 4.09 4.45 4.88 5.54 6.31 6.88 7.41 7.75 7.78 7.23 6.63 6.07 5.59 5.15 4.81 4.59 4.55 4.70 4.66 4.41 4.17 3.89 3.71 3.52 3.49 3.61 3.66 3.52 3.38 3.24 3.01 2.92 2.75 2.56 2.50 2.41 2.28 2.23 2.29 2.41 2.49
3.03 3.31 3.86 4.41 4.79 5.36 6.15 6.74 7.08 7.27 7.21 6.76 6.11 5.57 5.12 4.63 4.23 3.92 3.77 3.74 3.73 3.58 3.44 3.37 3.33 3.25 3.22 3.32 3.36 3.30 3.22 3.14 3.03 3.05 2.87 2.58 2.52 2.50 2.37 2.22 2.12 2.13 2.20